Tracking 25709 objects as of 23-May-2022
HD Live streaming from Space Station
objects crossing your sky now

COSMOS 2222

Track COSMOS 2222 now!
COSMOS 2222 is classified as:


NORAD ID: 22238
Int'l Code: 1992-081A
Perigee: 517.7 km
Apogee: 39,814.9 km
Inclination: 61.6 °
Period: 717.0 minutes
Semi major axis: 26537 km
RCS: 13.6381 m2 (large)
Launch date: November 25, 1992
Source: Commonwealth of Independent States (former USSR) (CIS)
Launch site: PLESETSK MISSILE AND SPACE COMPLEX (PKMTR)
aabbcc
Your satellite tracking list
Your tracking list is empty




NASA's NSSDC Master Catalog

Two Line Element Set (TLE):
1 22238U 92081A   22141.93730008 -.00001184  00000-0  78958-3 0  9992
2 22238  61.6071 301.7758 7404136 206.2641  80.4016  2.00824805216048
Source of the keplerian elements: AFSPC